Flag for Austria Weather past 2 weeks in Eisenstadt, Burgenland, Austria

Now
55 °F

Cool.


Feels Like: 55 °F
Forecast: 39 / 58 °F
Wind: 3 mph from North

Location: Eisenstadt

Current Time: Apr 19, 2015 at 4:27:52 PM

Latest Report: Apr 19, 2015 at 3:00 PM


Visibility: N/A

Pressure: 30.14 "Hg

Humidity: 38%

Dew point: 29 °F

Location of EisenstadtLocation

Historic Weather in Eisenstadt — Graph

°F

Eisenstadt temperature yesterday

Maximum temperature yesterday: 51 °F (at 3:00 PM)
Minimum temperature yesterday: 36 °F (at 11:00 PM)
Average temperature yesterday: 46 °F

Past Weeks' High & Low Weather Summary

 TemperatureHumidityPressure
High81 °F (Apr 16, 2:00 PM)94% (Apr 17, 8:00 PM)30.48 "Hg (Apr 17, 8:00 PM)
Low34 °F (Apr 19, 2:00 AM)15% (Apr 16, 2:00 PM)29.79 "Hg (Apr 17, 5:00 PM)
Average52 °F55%30.18 "Hg
* Reported Apr 4 3:00 PM — Apr 19 3:00 PM, Eisenstadt, Weather by CustomWeather, © 2015

Note: Actual official high and low records may vary slightly from our data, if they occured in-between our weather recording intervals... More about our weather records

Advertising

Eisenstadt weather history for previous 24 hours

 ConditionsComfort  
Time TempWeatherWind HumidityBarometerVisibility
3:00 PM
Sun, Apr 19
55 °FCool.3 mph38%30.14 "HgN/A
2:00 PM53 °FScattered clouds.3 mph42%30.16 "Hg9 mi
1:00 PM52 °FCool.1 mph40%30.18 "HgN/A
12:00 PM51 °FCool.1 mph45%30.21 "HgN/A
11:00 AM50 °FScattered clouds.3 mph47%30.22 "Hg9 mi
10:00 AM48 °FCool.1 mph48%30.22 "HgN/A
9:00 AM44 °FQuite cool.1 mph62%30.22 "HgN/A
8:00 AM41 °FOvercast.1 mph72%30.22 "Hg9 mi
7:00 AM38 °FChilly.2 mph73%30.21 "HgN/A
6:00 AM35 °FScattered clouds.5 mph77%30.21 "Hg9 mi
4:00 AM34 °FClear.3 mph81%30.23 "Hg9 mi
3:00 AM35 °FChilly.3 mph79%30.24 "HgN/A
2:00 AM34 °FClear.2 mph83%30.25 "Hg9 mi
1:00 AM35 °FChilly.3 mph83%30.26 "HgN/A
12:00 AM36 °FChilly.2 mph82%30.25 "HgN/A
11:00 PM
Sat, Apr 18
36 °FClear.2 mph84%30.24 "Hg9 mi
10:00 PM39 °FChilly.2 mph79%30.23 "HgN/A
9:00 PM41 °FQuite cool.2 mph70%30.22 "HgN/A
8:00 PM46 °FPassing clouds.2 mph50%30.18 "Hg12 mi
7:00 PM49 °FPartly sunny.3 mph42%30.16 "Hg12 mi
6:00 PM49 °FCool.3 mph42%30.15 "HgN/A
5:00 PM50 °FCool.3 mph42%30.14 "HgN/A
4:00 PM49 °FCool.3 mph50%30.13 "HgN/A
Weather by CustomWeather, © 2015

See weather overviewHow to use our weather pages